Location: Purfleet
(51.4833°N, 0.2333°E)
Time: 05:25:46
(UTC+00:00)

Daily predictions for brighter satellites

Satellite Brightness Start Highest point End
(mag) Time Altitude Azimuth Time Altitude Azimuth Time Altitude Azimuth
SL-4 R/B 2.8 00:02:02 10° W 00:05:40 31° SSW 00:06:37 28° S
Cosmos 1825 2.0 00:04:51 33° S 00:06:13 65° E 00:09:37 10° NNE
Cosmos 2154 Rocket 4.3 00:07:15 21° SSE 00:11:28 61° E 00:17:40 10° NNE
Cosmos 2297 Rocket 2.2 00:09:02 18° SSW 00:13:18 83° WNW 00:19:00 10° NNE
Okean 1 Rocket 3.0 00:09:12 10° N 00:13:35 90° WSW 00:16:03 26° S
NOSS 3-2 (A) 4.4 00:12:22 19° SSE 00:14:52 28° ESE 00:19:52 10° ENE
Cosmos 2219 4.0 00:14:01 21° SSE 00:17:11 37° ESE 00:22:18 10° NE
Aureole 1 Rocket 4.3 00:17:04 18° SE 00:18:45 25° E 00:22:20 10° NE
PSLV R/B 3.7 00:14:39 10° N 00:18:52 63° WNW 00:21:22 23° SSW
ATLAS CENTAUR R/B 4.2 00:21:10 10° NW 00:23:07 14° NNW 00:25:06 10° NNE
Cosmos 1354 Rocket 4.2 00:25:11 19° SW 00:29:04 70° WNW 00:34:23 10° NNE
Resurs 1-4 Rocket 4.4 00:30:21 10° NE 00:33:02 14° E 00:35:43 10° ESE
H-2A R/B 2.1 00:29:10 10° N 00:33:26 69° WNW 00:35:54 24° SSW
Cosmos 2084 Rocket 3.3 00:31:32 21° SW 00:34:21 86° SE 00:38:30 10° NE
Cosmos 1975 Rocket 3.9 00:37:42 19° SSE 00:40:25 42° E 00:44:35 10° NNE
Cosmos 292 Rocket 4.4 00:40:12 22° SSE 00:42:58 46° ESE 00:47:34 10° NE
Cosmos 2263 Rocket 2.8 00:42:06 20° S 00:45:34 43° ESE 00:50:49 10° NE
BlueWalker 3 2.1 00:43:39 10° W 00:47:24 73° N 00:51:09 10° ENE
Orbus 7S? 2.9 00:45:36 10° WNW 00:48:15 67° NNE 00:51:33 10° ESE
BREEZE-M DEB (TANK) 3.8 00:45:38 10° WSW 00:48:40 69° S 00:57:11 10° E
Cosmos 1455 Rocket 3.0 00:45:35 10° N 00:50:03 88° W 00:52:57 22° S
Cosmos 332 Rocket 4.2 00:48:13 18° SW 00:51:44 61° WNW 00:56:36 10° NNE
Okean 2 Rocket 4.5 00:49:16 10° NNW 00:53:00 26° W 00:55:21 17° SW
Cosmos 2074 Rocket 4.3 00:49:56 19° SSW 00:54:26 59° WNW 01:00:37 10° N
Cosmos 1680 Rocket 4.0 00:51:05 10° NNW 00:56:16 60° ENE 01:01:24 10° SE
Cosmos 2341 Rocket 4.4 00:56:40 16° SSE 01:01:33 58° E 01:07:39 10° NNE
Cosmos 1818 3.6 00:56:33 10° NW 01:02:06 89° SW 01:07:33 10° SE
Helios 1A Rocket 2.7 01:02:09 20° SSE 01:04:42 89° ENE 01:08:31 10° NNW
Cosmos 1025 Rocket 3.2 01:02:30 22° SSW 01:05:10 62° WNW 01:09:28 10° N
USA 234 4.0 01:00:17 10° E 01:06:39 56° N 01:13:01 10° WNW
Cosmos 1461 3.9 01:06:44 20° SSE 01:08:39 29° ESE 01:12:03 10° ENE
COSMOS 2455 4.1 01:03:52 10° WSW 01:09:28 38° NW 01:15:05 10° NNE
Cosmos 990 Rocket 4.1 01:08:07 18° SW 01:11:53 68° WNW 01:17:02 10° NNE
TIMED 4.5 01:10:13 22° SSW 01:12:57 83° ESE 01:17:18 10° NNE
Cosmos 1892 4.5 01:11:24 12° WSW 01:13:35 20° WNW 01:16:15 10° NNW
CENTAUR R/B 2.6 01:11:48 15° SW 01:16:45 89° NW 01:24:08 10° NE
SL-19 R/B 3.5 01:13:44 10° NNE 01:16:48 75° ESE 01:18:11 27° S
In-Cosmos 22 Rocket 4.3 01:14:28 18° S 01:18:50 86° ESE 01:24:42 10° NNE
IDEFIX/ARIANE 42P 3.5 01:16:13 10° NNE 01:21:11 41° E 01:25:41 12° SSE
SL-16 R/B 2.8 01:17:25 10° NW 01:22:42 40° WSW 01:26:33 17° S
Cosmos 1869 3.0 01:23:29 10° NNW 01:27:12 83° W 01:29:53 18° S
Cosmos 1603 4.3 01:22:00 10° NNW 01:27:43 61° NE 01:33:23 10° SE
Cosmos 2237 Rocket 4.2 01:26:09 10° WNW 01:28:21 12° W 01:30:33 10° WSW
GEOS 3 Rocket 3.8 01:27:47 10° NE 01:32:57 68° NW 01:37:52 11° WSW
CZ-4C R/B 3.6 01:30:53 10° W 01:35:36 37° NNW 01:41:32 10° NE
Cosmos 2082 3.7 01:31:20 17° SSW 01:35:45 89° ESE 01:41:25 10° NNE
Cosmos 2218 Rocket 4.1 01:31:20 15° S 01:36:39 80° E 01:42:51 10° NNE
CZ-2D R/B 3.1 01:31:40 10° NNE 01:36:43 40° E 01:41:39 10° SSE
Cosmos 1943 3.2 01:31:10 10° NNW 01:36:50 84° WSW 01:42:26 10° SSE
Cosmos 2227 Rocket 3.1 01:32:06 10° WSW 01:37:29 42° NW 01:42:54 10° NNE
CZ-2C R/B 2.9 01:33:08 10° SSE 01:38:23 70° ENE 01:43:48 10° N
Cosmos 1437 Rocket 4.3 01:35:42 10° SSE 01:39:01 29° E 01:42:19 10° NNE
Cosmos 1825 4.5 01:39:34 10° W 01:40:50 12° WNW 01:42:06 10° NW
Cosmos 2366 rocket 4.0 01:37:03 15° S 01:42:25 90° ESE 01:48:42 10° N
Cosmos 372 Rocket 4.0 01:40:51 17° SSW 01:44:59 84° WNW 01:50:15 10° NNE
Cosmos 494 Rocket 4.5 01:40:42 10° NNW 01:45:55 63° ENE 01:51:08 10° SE
MOZ.5/SAFIR/RUBIN 5/SL-8 3.9 01:43:48 15° S 01:47:37 56° W 01:52:11 10° NNW
Meteor 1-11 4.5 01:49:40 15° SSW 01:54:30 66° WNW 02:00:18 10° N
NPP 3.8 01:50:47 10° NNE 01:56:12 74° ESE 02:01:12 12° S
ADEOS II 3.1 01:53:11 10° NNE 01:58:09 41° E 02:03:05 10° SSE
Cosmos 2297 Rocket 4.1 01:53:47 10° W 01:58:13 23° NW 02:02:40 10° NNE
Cosmos 2228 3.1 01:55:44 10° NNW 02:00:01 61° W 02:03:53 12° S
Cosmos 2219 3.9 01:55:55 11° SW 02:01:13 47° NW 02:06:40 10° NNE
Aureole 1 Rocket 4.0 01:58:23 12° WSW 02:01:38 37° NW 02:06:03 10° NNE
Cosmos 1544 Rocket 4.1 01:57:31 10° NNW 02:01:46 45° W 02:05:22 14° SSW
Cosmos 1937 Rocket 3.7 01:59:45 14° SW 02:04:18 70° WNW 02:09:33 10° NNE
Cosmos 1606 3.6 02:01:50 10° NNW 02:04:59 30° W 02:07:22 15° SW
NOSS 3-2 (A) 3.5 01:59:43 11° SW 02:05:00 71° NW 02:11:32 10° NE
H-2A R/B 3.4 02:03:55 10° NNE 02:07:56 86° ESE 02:11:32 12° SSW
ALOS 3.9 02:04:39 10° NNE 02:08:43 29° E 02:12:44 10° SSE
Cosmos 1898 Rocket 4.0 02:04:35 12° SW 02:09:12 50° WNW 02:14:15 10° NNE
SL-16 R/B 3.0 02:04:18 10° SSE 02:10:30 68° ENE 02:16:42 10° NNW
Cosmos 2227 4.4 02:05:48 12° SSW 02:11:01 70° ESE 02:16:47 10° NNE
NOSS 3-2 (C) 3.4 02:06:42 13° SSW 02:11:29 74° SE 02:17:52 10° NE
SL-8 Rocket 4.4 02:07:58 13° SSW 02:13:24 51° WNW 02:19:28 10° N
Resurs 1-4 Rocket 2.2 02:08:22 10° NNE 02:13:40 81° ESE 02:18:58 10° SSW
Cosmos 1812 3.8 02:19:31 10° N 02:22:56 41° ENE 02:26:20 10° SE
BlueWalker 3 2.1 02:22:00 10° WNW 02:25:45 74° N 02:29:30 10° E
Cosmos 2263 Rocket 3.1 02:24:15 10° WSW 02:29:32 42° NW 02:34:49 10° NNE
Cosmos 1727 Rocket 4.2 02:23:29 10° NNW 02:29:42 60° W 02:35:55 10° S
Cosmos 921 Rocket 3.0 02:29:55 10° NNW 02:34:07 59° WSW 02:38:13 10° S
COSMOS 2441 4.4 02:30:16 10° NNE 02:35:06 86° WNW 02:39:55 10° SSW
Cosmos 1606 Rocket 3.6 02:32:52 10° NNW 02:37:18 68° W 02:41:41 10° S
Cosmos 724 4.2 02:38:03 10° NW 02:43:52 76° SW 02:49:42 10° SSE
Cosmos 1461 3.6 02:42:55 10° WSW 02:46:42 42° NW 02:50:24 10° NNE
Cosmos 1536 Rocket 4.3 02:43:38 10° SW 02:47:49 40° WNW 02:52:00 10° N
Cosmos 1844 Rocket 2.8 02:43:00 10° SSW 02:48:35 79° ESE 02:54:11 10° NNE
USA 234 3.5 02:42:50 10° ESE 02:49:23 80° NNE 02:55:57 10° WNW
Cosmos 1726 Rocket 3.7 02:48:03 10° NNW 02:52:28 63° W 02:56:49 10° S
Cosmos 2058 3.8 02:48:57 10° S 02:52:51 48° E 02:56:48 10° NNE
Cosmos 1238 Rocket 3.1 02:51:16 10° N 02:54:46 54° ENE 02:57:49 10° SSE
